Regional Weather Roundup
Issued by NWS Albany, NY

Current Version | Previous Version | Text Only | Print | Product List | Glossary Off
Versions: 1 2 3 4 5 6 7 8 9 10 11 12 13 14 15 16 17 18 19 20 21 22 23 24 25 26 27 28 29 30 31 32 33 34 35 36 37 38 39 40 41 42 43 44 45 46 47 48 49 50
000 ASUS41 KALY 182110 RWRALY NEW YORK STATE HOURLY WEATHER ROUNDUP NATIONAL WEATHER SERVICE ALBANY NY 500 PM EDT SUN APR 18 2021 NOTE: "FAIR" INDICATES FEW OR NO CLOUDS BELOW 12,000 FEET WITH NO SIGNIFICANT WEATHER AND/OR NO OBSTRUCTIONS TO VISIBILITY. NYZ032-033-038>043-046>054-057>066-NYZ062>081-082-084-182200- EAST CITY SKY/WX TMP DP RH WIND PRES REMARKS ALBANY LGT RAIN 54 38 54 NW10 29.77R GLENS FALLS CLOUDY 51 45 79 CALM 29.77R POUGHKEEPSIE CLOUDY 60 36 40 W12 29.77R NEWBURGH PTSUNNY 57 39 51 NW8 29.79R MONTGOMERY LGT RAIN 56 37 49 NW6 29.79R WHITE PLAINS PTSUNNY 58 33 39 W7 29.79R ISLIP CLOUDY 55 42 61 SW10 29.81R NEW YORK CITY PTSUNNY 59 38 45 S10 29.80R CENTRAL PARK CLOUDY 61 37 41 CALM 29.82S $$ NYZ005>009-017-018-044>046-055-056-182200- CENTRAL CITY SKY/WX TMP DP RH WIND PRES REMARKS FULTON N/A 58 34 40 W18G24 29.81S SYRACUSE PTSUNNY 61 33 35 W20 29.80S ROME MOSUNNY 59 35 40 NW12 29.78S ELMIRA CLOUDY 59 35 40 CALM 29.81S BINGHAMTON CLOUDY 52 34 50 NW7 29.80R MONTICELLO CLOUDY 52 37 56 N5 29.81R $$ NYZ026>034-041>043-087-182200- NORTH CITY SKY/WX TMP DP RH WIND PRES REMARKS WATERTOWN CLOUDY 50 38 63 SW8 29.79F FORT DRUM NOT AVBL OGDENSBURG CLOUDY 54 46 76 S5 29.75S MASSENA MOSUNNY 54 38 54 SW12 29.77S SARANAC LAKE CLOUDY 51 37 58 CALM 29.73R PLATTSBURGH SUNNY 52 36 54 SE6 29.76S $$ NYZ001>004-010>016-019>021-085-182200- WEST CITY SKY/WX TMP DP RH WIND PRES REMARKS NIAGARA FALLS MOSUNNY 56 39 53 SW17 29.82S BUFFALO PTSUNNY 54 37 52 SW13 29.83F DUNKIRK CLOUDY 55 36 48 W8 29.85S JAMESTOWN CLOUDY 50 36 58 SE6 29.84S WELLSVILLE CLOUDY 51 33 50 NW6 29.83F ROCHESTER PTSUNNY 57 37 47 NW9 29.82R PENN YAN CLOUDY 55 35 47 SW8 29.82S $$ KEY WCI = WIND CHILL INDEX VSB = VISIBILITY HX = HEAT INDEX $$

USA.gov is the U.S. government's official web portal to all federal, state and local government web resources and services.